Powrót do katalogu

CZ-6A DEB

AktywnySSO
NORAD 54285·DEBRIS·🇨🇳 China

Wystrzelony Nov 11, 2022 z Taiyuan Satellite Launch Center

Loading…

Następne Przeloty (najbliższe 24 godziny)

TLE

ŚwieżeSource: Space-Track

Epoka: Sep 14, 2026, 10:23 UTC

1 54285U 22151AC  26257.43270502  .00001421  00000-0  78250-3 0  9993
2 54285  98.8655 251.4728 0071830 112.6464 248.2324 14.11890574196662

Śledź CZ-6A DEB w czasie rzeczywistym z AllMySat

Download on the App Store